This demonstration page uses our WeatherBlox Daily Observations layout. Learn more.

Left ArrowRight Arrow

34.74481, -87.66753

Hourly Observations for July 2, 2020

Temp ( °F °C ) Dew Point ( °F °C ) Humidity (%) Winds ( mph kmh ) Pressure ( in mb ) Visibility ( mi km ) Precip ( " mm )
12:53 am 00:53 Mostly Clear 72 22.2 69 20.6 91 91 W 8 13 29.94 1014 10 16 0.00 0.00
1:08 am 01:08 Mostly Clear 72 22.2 69 20.6 91 91 NW 6 9 29.94 1014 10 16 0.00 0.00
1:53 am 01:53 Clear 71 21.7 68 20 90 90 W 6 9 29.93 1013 10 16 0.00 0.00
2:53 am 02:53 Clear 71 21.7 68 20 90 90 Calm 29.92 1013 10 16 0.00 0.00
3:53 am 03:53 Clear 69 20.6 67 19.4 93 93 WNW 5 7 29.92 1013 8 13 0.00 0.00
4:53 am 04:53 Clear 70 21.1 67 19.4 90 90 Calm 29.93 1014 10 16 0.00 0.00
5:53 am 05:53 Sunny 69 20.6 66 18.9 90 90 W 5 7 29.95 1014 10 16 0.00 0.00
6:31 am 06:31 Partly Cloudy 70 21.1 67 19.4 90 90 Calm 29.96 1014 10 16 0.00 0.00
6:40 am 06:40 Mostly Cloudy 70 21.1 67 19.4 90 90 Calm 29.97 1015 10 16 0.00 0.00
6:51 am 06:51 Mostly Cloudy 72 22 68 20 88 88 Calm 29.96 1015 10 16 0.00 0.00
6:53 am 06:53 Mostly Cloudy 71 21.7 68 20 90 90 Calm 29.96 1015 10 16 0.00 0.00
7:01 am 07:01 Partly Cloudy 71 21.7 67 19.4 87 87 Calm 29.96 1015 10 16 0.00 0.00
7:26 am 07:26 Mostly Cloudy 71 21.7 68 20 90 90 ENE 3 6 29.96 1015 10 16 0.00 0.00
7:53 am 07:53 Cloudy 72 22.2 68 20 87 87 Calm 29.97 1015 10 16 0.00 0.00
8:53 am 08:53 Cloudy 75 23.9 69 20.6 82 82 SSE 5 7 29.98 1015 10 16 0.00 0.00
9:34 am 09:34 Mostly Cloudy 78 25.6 70 21.1 76 76 WSW 3 6 29.97 1015 10 16 0.00 0.00
9:53 am 09:53 Mostly Cloudy 78 25.6 70 21.1 76 76 Calm 29.97 1015 10 16 0.00 0.00
10:53 am 10:53 Mostly Cloudy 82 27.8 70 21.1 67 67 NW 3 6 29.97 1015 10 16 0.00 0.00
11:53 am 11:53 Sunny 85 29.4 69 20.6 59 59 Calm 29.96 1015 10 16 0.00 0.00
11:53 pm 23:53 Clear 78 25.6 74 23.3 87 87 Calm 29.93 1014 10 16 0.00 0.00

Powered by AerisWeather